Location: Daouli
(14.8671°N, 3.2030°W)
Time: 01:54:55
(UTC+00:00)

Milstar 3 - Pass Details

Date: 29 October 2020
Orbit: 1101 x 5144 km, 28.2° (Epoch: 28 November)

Event Time Altitude Azimuth Distance (km) Brightness Sun altitude
Rises 18:58:07 0° 294° (WNW) 4,230 6.8 -18.1°
Reaches altitude 10° 19:01:32 10° 306° (NW) 3,055 5.7 -18.9°
Maximum altitude 19:07:21 28° 6° (N) 1,918 3.9 -20.3°
Enters shadow 19:09:43 23° 38° (NE) 2,177 3.9 -20.9°
